Weather in Undino-Poselye

Russia / Zabaykalsky Krai     51°25′26″N   116°14′12″E
temp.,
°C
wind,
m/s
gust,
m/s
humid.,
%
clouds,
%
prec.,
mm/h
press.,
hPa
HPBL,
m
6 march, sat
sat600:00−27sse22900 0.0 104222
03:00−27s22910 0.0 104122
06:00−26sse229027 0.0 103823
09:00−23s118753 0.0 103627
12:00−18sw238267 0.0 1032291
15:00−16wsw338683 0.0 1029442
18:00−16wsw2392100 0.1 1028362
21:00−22s129979 0.1 102921
7 march, sun
sun700:00−22ssw229927 0.0 102824
03:00−21ssw2210063 0.0 102823
06:00−21sse1210099 0.0 102820
09:00−18sse119685 0.0 102924
12:00−11ssw22850 0.0 1027211
15:00−7sw23840 0.0 1024302
18:00−9ssw22890 0.0 102353
21:00−13s22860 0.0 102524
8 march, mon
mon800:00−14s22880 0.0 102426
03:00−15s22930 0.0 102326
06:00−14ssw229376 0.0 102132
09:00−12sw239287 0.0 1020104
12:00−8sw3488100 0.0 1018310
15:00−6sw3489100 0.0 1016361
18:00−6ssw239488 0.0 101585
21:00−6wnw6187177 0.1 1018934
9 march, tue
tue900:00−11nw487724 0.0 1021170
03:00−15wnw238013 0.0 102630
06:00−19n00790 0.0 102920
09:00−17sse11760 0.0 103220
12:00−11sw22731 0.0 1030237
15:00−8s237021 0.0 1028342
18:00−10ssw348079 0.0 1026146
21:00−14s237889 0.0 102632
10 march, wed
wed1000:00−14s2276100 0.0 102427
03:00−13ssw1286100 0.0 102223
06:00−13wsw1293100 0.0 102321
09:00−13sw119595 0.0 102426
12:00−8sw338856 0.0 1022240
15:00−2w5117143 0.0 10211446
18:00−4nw49720 0.0 1023316
21:00−11n127316 0.1 102821